Time,TemperatureF,DewpointF,PressureIn,WindDirection,WindDirectionDegrees,WindSpeedMPH,WindSpeedGustMPH,Humidity,HourlyPrecipIn,Conditions,Clouds,dailyrainin,SoftwareType,DateUTC
2013-08-02 00:01:00,68.7,58.1,30.00,WNW,291,0.0,0.0,69,0.00,CLR,,0.00,WeatherDisplay:10.37,2013-08-02 04:01:00,
2013-08-02 00:02:00,68.5,58.4,30.00,West,267,0.0,0.0,70,0.00,CLR,,0.00,WeatherDisplay:10.37,2013-08-02 04:02:00,
2013-08-02 00:07:00,68.4,58.2,30.00,West,267,0.0,0.0,70,0.00,CLR,,0.00,WeatherDisplay:10.37,2013-08-02 04:07:00,
2013-08-02 00:12:00,68.4,58.2,30.00,WNW,289,0.0,1.1,70,0.00,CLR,,0.00,WeatherDisplay:10.37,2013-08-02 04:12:00,
2013-08-02 00:16:00,68.4,58.2,30.00,WNW,289,0.0,0.0,70,0.00,CLR,,0.00,WeatherDisplay:10.37,2013-08-02 04:16:00,
2013-08-02 00:22:00,68.5,58.4,30.00,WNW,289,0.3,2.3,70,0.00,CLR,,0.00,WeatherDisplay:10.37,2013-08-02 04:22:00,
2013-08-02 00:27:00,68.7,58.5,30.00,WNW,289,1.3,1.3,70,0.00,CLR,,0.00,WeatherDisplay:10.37,2013-08-02 04:27:00,
2013-08-02 00:32:00,68.7,58.5,30.00,NW,312,0.0,0.0,70,0.00,CLR,,0.00,WeatherDisplay:10.37,2013-08-02 04:32:00,
2013-08-02 00:37:00,68.7,58.5,30.00,NW,312,0.2,1.8,70,0.00,CLR,,0.00,WeatherDisplay:10.37,2013-08-02 04:37:00,
2013-08-02 00:42:00,68.7,58.5,29.99,WNW,289,0.0,0.0,70,0.00,CLR,,0.00,WeatherDisplay:10.37,2013-08-02 04:42:00,
2013-08-02 00:47:00,68.5,58.4,30.00,WNW,289,0.0,0.0,70,0.00,CLR,,0.00,WeatherDisplay:10.37,2013-08-02 04:47:00,
2013-08-02 00:52:00,68.2,58.4,30.00,WNW,289,2.3,2.3,71,0.00,CLR,,0.00,WeatherDisplay:10.37,2013-08-02 04:52:00,
2013-08-02 00:57:00,68.4,58.2,30.00,WNW,289,0.0,0.0,70,0.00,CLR,,0.00,WeatherDisplay:10.37,2013-08-02 04:57:00,
2013-08-02 01:02:00,68.5,58.4,30.00,West,267,1.6,1.6,70,0.00,CLR,,0.00,WeatherDisplay:10.37,2013-08-02 05:02:00,
2013-08-02 01:07:00,67.8,58.1,29.99,NW,312,0.0,1.1,71,0.00,CLR,,0.00,WeatherDisplay:10.37,2013-08-02 05:07:00,
2013-08-02 01:12:00,67.6,57.9,30.00,NW,312,0.0,0.0,71,0.00,CLR,,0.00,WeatherDisplay:10.37,2013-08-02 05:12:00,
2013-08-02 01:17:00,67.6,58.3,30.00,NW,312,1.3,1.3,72,0.00,CLR,,0.00,WeatherDisplay:10.37,2013-08-02 05:17:00,
2013-08-02 01:22:00,67.1,57.8,30.00,NW,312,0.0,0.0,72,0.00,CLR,,0.00,WeatherDisplay:10.37,2013-08-02 05:22:00,
2013-08-02 01:27:00,66.9,57.6,30.00,WNW,289,0.0,0.0,72,0.00,CLR,,0.00,WeatherDisplay:10.37,2013-08-02 05:27:00,
2013-08-02 01:32:00,66.7,57.4,30.00,WNW,289,0.0,0.0,72,0.00,CLR,,0.00,WeatherDisplay:10.37,2013-08-02 05:32:00,
2013-08-02 01:37:00,66.0,57.5,30.00,WNW,289,0.0,0.0,74,0.00,CLR,,0.00,WeatherDisplay:10.37,2013-08-02 05:37:00,
2013-08-02 01:42:00,65.8,57.3,30.00,WNW,289,0.0,0.0,74,0.00,CLR,,0.00,WeatherDisplay:10.37,2013-08-02 05:42:00,
2013-08-02 01:47:00,65.5,57.0,30.00,WNW,289,0.0,0.0,74,0.00,CLR,,0.00,WeatherDisplay:10.37,2013-08-02 05:47:00,
2013-08-02 01:52:00,65.1,57.0,30.00,WNW,289,0.0,0.0,75,0.00,CLR,,0.00,WeatherDisplay:10.37,2013-08-02 05:52:00,
2013-08-02 01:57:00,65.1,57.0,30.00,WNW,289,0.0,0.0,75,0.00,CLR,,0.00,WeatherDisplay:10.37,2013-08-02 05:57:00,
2013-08-02 02:02:00,65.1,57.0,30.00,SSW,199,0.0,0.0,75,0.00,CLR,,0.00,WeatherDisplay:10.37,2013-08-02 06:02:00,
2013-08-02 02:07:00,64.4,56.7,30.00,SE,132,0.0,0.0,76,0.00,CLR,,0.00,WeatherDisplay:10.37,2013-08-02 06:07:00,
2013-08-02 02:12:00,64.2,56.9,30.00,WNW,289,0.0,0.0,77,0.00,CLR,,0.00,WeatherDisplay:10.37,2013-08-02 06:12:00,
2013-08-02 02:17:00,64.2,56.9,30.00,NW,312,0.0,0.0,77,0.00,CLR,,0.00,WeatherDisplay:10.37,2013-08-02 06:17:00,
2013-08-02 02:22:00,63.7,56.3,30.00,NW,312,0.0,0.0,77,0.00,CLR,,0.00,WeatherDisplay:10.37,2013-08-02 06:22:00,
2013-08-02 02:27:00,63.7,56.3,30.00,NW,312,0.0,0.0,77,0.00,CLR,,0.00,WeatherDisplay:10.37,2013-08-02 06:27:00,
2013-08-02 02:32:00,63.5,56.2,30.00,NW,312,0.0,0.0,77,0.00,CLR,,0.00,WeatherDisplay:10.37,2013-08-02 06:32:00,
2013-08-02 02:37:00,63.3,55.6,30.00,WSW,245,0.0,0.0,76,0.00,CLR,,0.00,WeatherDisplay:10.37,2013-08-02 06:37:00,
2013-08-02 02:42:00,63.1,55.4,30.00,WSW,245,0.0,0.0,76,0.00,CLR,,0.00,WeatherDisplay:10.37,2013-08-02 06:42:00,
2013-08-02 02:47:00,63.0,56.0,30.00,WSW,245,0.0,0.0,78,0.00,CLR,,0.00,WeatherDisplay:10.37,2013-08-02 06:47:00,
2013-08-02 02:52:00,63.0,56.0,29.99,SSW,199,0.0,0.0,78,0.00,CLR,,0.00,WeatherDisplay:10.37,2013-08-02 06:52:00,
2013-08-02 02:57:00,62.4,55.8,29.99,SSW,199,0.0,0.0,79,0.00,CLR,,0.00,WeatherDisplay:10.37,2013-08-02 06:57:00,
2013-08-02 03:02:00,62.4,55.8,29.99,SSW,199,0.0,0.0,79,0.00,CLR,,0.00,WeatherDisplay:10.37,2013-08-02 07:02:00,
2013-08-02 03:07:00,62.4,55.5,29.99,SSW,199,0.0,0.0,78,0.00,CLR,,0.00,WeatherDisplay:10.37,2013-08-02 07:07:00,
2013-08-02 03:12:00,62.2,55.3,29.99,SSW,199,0.0,0.0,78,0.00,FEW,,0.00,WeatherDisplay:10.37,2013-08-02 07:12:00,
2013-08-02 03:17:00,62.1,55.1,29.99,SSW,199,0.0,0.0,78,0.00,FEW,,0.00,WeatherDisplay:10.37,2013-08-02 07:17:00,
2013-08-02 03:22:00,61.9,55.3,29.99,SSW,199,0.0,0.0,79,0.00,FEW,,0.00,WeatherDisplay:10.37,2013-08-02 07:22:00,
2013-08-02 03:27:00,61.9,55.3,29.98,SSW,199,0.0,0.0,79,0.00,FEW,,0.00,WeatherDisplay:10.37,2013-08-02 07:27:00,
2013-08-02 03:32:00,61.7,55.1,29.98,SSW,199,0.0,0.0,79,0.00,FEW,,0.00,WeatherDisplay:10.37,2013-08-02 07:32:00,
2013-08-02 03:37:00,61.5,54.9,29.99,SSW,199,0.0,0.0,79,0.00,FEW,,0.00,WeatherDisplay:10.37,2013-08-02 07:37:00,
2013-08-02 03:42:00,61.5,55.3,29.98,NW,312,0.0,0.0,80,0.00,FEW,,0.00,WeatherDisplay:10.37,2013-08-02 07:42:00,
2013-08-02 03:47:00,61.5,55.6,29.99,NW,312,0.0,0.0,81,0.00,FEW,,0.00,WeatherDisplay:10.37,2013-08-02 07:47:00,
2013-08-02 03:52:00,61.5,55.6,29.98,NNW,335,0.0,0.0,81,0.00,FEW,,0.00,WeatherDisplay:10.37,2013-08-02 07:52:00,
2013-08-02 03:57:00,61.5,55.6,29.98,SW,222,0.0,0.0,81,0.00,FEW,,0.00,WeatherDisplay:10.37,2013-08-02 07:57:00,
2013-08-02 04:02:00,61.5,55.6,29.98,West,267,0.0,0.0,81,0.00,FEW,,0.00,WeatherDisplay:10.37,2013-08-02 08:02:00,
2013-08-02 04:07:00,61.5,56.0,29.98,West,267,0.0,0.0,82,0.00,FEW,,0.00,WeatherDisplay:10.37,2013-08-02 08:07:00,
2013-08-02 04:12:00,61.5,55.6,29.99,West,267,0.0,0.0,81,0.00,SCT,,0.00,WeatherDisplay:10.37,2013-08-02 08:12:00,
2013-08-02 04:17:00,61.3,55.5,29.99,West,267,0.0,0.0,81,0.00,SCT,,0.00,WeatherDisplay:10.37,2013-08-02 08:17:00,
2013-08-02 04:22:00,61.3,55.5,30.00,West,267,0.0,0.0,81,0.00,SCT,,0.00,WeatherDisplay:10.37,2013-08-02 08:22:00,
2013-08-02 04:27:00,61.2,55.3,30.00,West,267,0.0,0.0,81,0.00,SCT,,0.00,WeatherDisplay:10.37,2013-08-02 08:27:00,
2013-08-02 04:32:00,61.2,55.3,29.99,West,267,0.0,0.0,81,0.00,SCT,,0.00,WeatherDisplay:10.37,2013-08-02 08:32:00,
2013-08-02 04:37:00,61.2,56.0,30.00,NNW,335,0.0,0.0,83,0.00,SCT,,0.00,WeatherDisplay:10.37,2013-08-02 08:37:00,
2013-08-02 04:42:00,61.3,56.1,30.00,NNW,335,0.0,0.0,83,0.00,SCT,,0.00,WeatherDisplay:10.37,2013-08-02 08:42:00,
2013-08-02 04:47:00,61.3,56.1,29.99,NW,312,0.0,0.0,83,0.00,SCT,,0.00,WeatherDisplay:10.37,2013-08-02 08:47:00,
2013-08-02 04:52:00,61.3,55.8,29.99,NW,312,0.0,0.0,82,0.00,SCT,,0.00,WeatherDisplay:10.37,2013-08-02 08:52:00,
2013-08-02 04:57:00,61.2,55.6,29.99,SSE,155,0.0,0.0,82,0.00,SCT,,0.00,WeatherDisplay:10.37,2013-08-02 08:57:00,
2013-08-02 05:02:00,61.0,55.1,29.99,SSE,155,0.0,0.0,81,0.00,SCT,,0.00,WeatherDisplay:10.37,2013-08-02 09:02:00,
2013-08-02 05:07:00,60.6,55.1,29.99,SSE,155,0.0,0.0,82,0.00,SCT,,0.00,WeatherDisplay:10.37,2013-08-02 09:07:00,
2013-08-02 05:12:00,60.6,55.1,30.00,SSE,155,0.0,0.0,82,0.00,CLR,,0.00,WeatherDisplay:10.37,2013-08-02 09:12:00,
2013-08-02 05:17:00,60.6,55.4,30.00,SW,222,0.0,0.0,83,0.00,CLR,,0.00,WeatherDisplay:10.37,2013-08-02 09:17:00,
2013-08-02 05:22:00,60.6,55.4,30.00,SW,222,0.0,0.0,83,0.00,CLR,,0.00,WeatherDisplay:10.37,2013-08-02 09:22:00,
2013-08-02 05:27:00,60.6,55.4,30.00,WSW,245,0.0,0.0,83,0.00,CLR,,0.00,WeatherDisplay:10.37,2013-08-02 09:27:00,
2013-08-02 05:32:00,60.4,55.6,30.00,South,177,0.0,0.0,84,0.00,CLR,,0.00,WeatherDisplay:10.37,2013-08-02 09:32:00,
2013-08-02 05:37:00,60.4,55.6,30.00,South,177,0.0,0.0,84,0.00,CLR,,0.00,WeatherDisplay:10.37,2013-08-02 09:37:00,
2013-08-02 05:42:00,60.4,55.6,30.00,South,177,0.0,0.0,84,0.00,CLR,,0.00,WeatherDisplay:10.37,2013-08-02 09:42:00,
2013-08-02 05:47:00,60.4,55.6,30.00,South,177,0.0,0.0,84,0.00,CLR,,0.00,WeatherDisplay:10.37,2013-08-02 09:47:00,
2013-08-02 05:52:00,60.4,55.6,30.00,NNE,19,0.0,0.0,84,0.00,CLR,,0.00,WeatherDisplay:10.37,2013-08-02 09:52:00,
2013-08-02 05:57:00,60.4,55.6,30.00,SE,132,0.0,0.0,84,0.00,CLR,,0.00,WeatherDisplay:10.37,2013-08-02 09:57:00,
2013-08-02 06:02:00,60.4,55.6,30.00,SW,222,0.0,0.0,84,0.00,CLR,,0.00,WeatherDisplay:10.37,2013-08-02 10:02:00,
2013-08-02 06:07:00,60.3,55.4,30.01,SW,222,0.0,0.0,84,0.00,CLR,,0.00,WeatherDisplay:10.37,2013-08-02 10:07:00,
2013-08-02 06:12:00,60.1,55.2,30.01,SW,222,0.0,0.0,84,0.00,CLR,,0.00,WeatherDisplay:10.37,2013-08-02 10:12:00,
2013-08-02 06:17:00,60.1,55.2,30.01,SW,222,0.0,0.0,84,0.00,CLR,,0.00,WeatherDisplay:10.37,2013-08-02 10:17:00,
2013-08-02 06:22:00,59.9,55.1,30.00,SW,222,0.0,0.0,84,0.00,CLR,,0.00,WeatherDisplay:10.37,2013-08-02 10:22:00,
2013-08-02 06:27:00,59.9,55.1,30.00,SW,222,0.0,0.0,84,0.00,CLR,,0.00,WeatherDisplay:10.37,2013-08-02 10:27:00,
2013-08-02 06:32:00,59.7,54.9,30.00,East,87,0.0,0.0,84,0.00,CLR,,0.00,WeatherDisplay:10.37,2013-08-02 10:32:00,
2013-08-02 06:37:00,59.9,55.1,30.00,ESE,109,0.0,0.0,84,0.00,CLR,,0.00,WeatherDisplay:10.37,2013-08-02 10:37:00,
2013-08-02 06:42:00,59.9,55.4,30.00,ESE,109,0.0,0.0,85,0.00,CLR,,0.00,WeatherDisplay:10.37,2013-08-02 10:42:00,
2013-08-02 06:47:00,60.1,55.6,30.00,ESE,109,0.0,0.0,85,0.00,CLR,,0.00,WeatherDisplay:10.37,2013-08-02 10:47:00,
2013-08-02 06:52:00,59.9,55.4,30.00,ESE,109,0.0,0.0,85,0.00,CLR,,0.00,WeatherDisplay:10.37,2013-08-02 10:52:00,
2013-08-02 06:57:00,59.9,55.4,30.00,ENE,65,0.0,0.0,85,0.00,CLR,,0.00,WeatherDisplay:10.37,2013-08-02 10:57:00,
2013-08-02 07:02:00,60.1,55.6,30.00,East,87,0.0,0.0,85,0.00,CLR,,0.00,WeatherDisplay:10.37,2013-08-02 11:02:00,
2013-08-02 07:07:00,60.1,55.6,30.00,ESE,109,0.0,0.0,85,0.00,CLR,,0.00,WeatherDisplay:10.37,2013-08-02 11:07:00,
2013-08-02 07:12:00,60.1,55.6,30.00,ESE,109,0.0,0.0,85,0.00,BKN,,0.00,WeatherDisplay:10.37,2013-08-02 11:12:00,
2013-08-02 07:17:00,60.1,55.6,30.01,ESE,109,0.0,0.0,85,0.00,BKN,,0.00,WeatherDisplay:10.37,2013-08-02 11:17:00,
2013-08-02 07:22:00,60.3,55.7,30.01,ESE,109,0.0,0.0,85,0.00,BKN,,0.00,WeatherDisplay:10.37,2013-08-02 11:22:00,
2013-08-02 07:27:00,60.4,55.9,30.01,ENE,65,0.0,0.0,85,0.00,BKN,,0.00,WeatherDisplay:10.37,2013-08-02 11:27:00,
2013-08-02 07:32:00,60.6,56.4,30.01,NNE,19,0.0,0.0,86,0.00,BKN,,0.00,WeatherDisplay:10.37,2013-08-02 11:32:00,
2013-08-02 07:37:00,60.8,56.6,30.01,NNW,335,0.0,0.0,86,0.00,BKN,,0.00,WeatherDisplay:10.37,2013-08-02 11:37:00,
2013-08-02 07:42:00,61.2,56.9,30.01,NNW,335,0.0,0.0,86,0.00,BKN,,0.00,WeatherDisplay:10.37,2013-08-02 11:42:00,
2013-08-02 07:47:00,61.3,56.8,30.01,NNW,335,0.0,0.0,85,0.00,BKN,,0.00,WeatherDisplay:10.37,2013-08-02 11:47:00,
2013-08-02 07:52:00,61.5,57.0,30.01,NNW,335,0.0,0.0,85,0.00,BKN,,0.00,WeatherDisplay:10.37,2013-08-02 11:52:00,
2013-08-02 07:57:00,61.7,57.1,30.01,NNW,335,0.0,0.0,85,0.00,BKN,,0.00,WeatherDisplay:10.37,2013-08-02 11:57:00,
2013-08-02 08:02:00,62.2,57.7,30.01,NNW,335,0.0,0.0,85,0.00,BKN,,0.00,WeatherDisplay:10.37,2013-08-02 12:02:00,
2013-08-02 08:07:00,62.8,58.2,30.01,North,357,0.0,0.0,85,0.00,BKN,,0.00,WeatherDisplay:10.37,2013-08-02 12:07:00,
2013-08-02 08:12:00,63.1,58.9,30.01,NNE,19,0.0,0.0,86,0.00,BKN,,0.00,WeatherDisplay:10.37,2013-08-02 12:12:00,
2013-08-02 08:17:00,64.0,59.8,30.01,NE,42,0.0,0.0,86,0.00,BKN,,0.00,WeatherDisplay:10.37,2013-08-02 12:17:00,
2013-08-02 08:22:00,64.6,60.3,30.01,ESE,109,0.0,0.0,86,0.00,BKN,,0.00,WeatherDisplay:10.37,2013-08-02 12:22:00,
2013-08-02 08:27:00,64.9,60.6,30.01,ESE,109,0.0,0.0,86,0.00,BKN,,0.00,WeatherDisplay:10.37,2013-08-02 12:27:00,
2013-08-02 08:32:00,66.0,61.7,30.01,ESE,109,0.0,0.0,86,0.00,BKN,,0.00,WeatherDisplay:10.37,2013-08-02 12:32:00,
2013-08-02 08:37:00,66.9,62.3,30.01,ESE,109,0.0,0.0,85,0.00,BKN,,0.00,WeatherDisplay:10.37,2013-08-02 12:37:00,
2013-08-02 08:42:00,67.8,63.1,30.01,South,177,0.0,0.0,85,0.00,BKN,,0.00,WeatherDisplay:10.37,2013-08-02 12:42:00,
2013-08-02 08:47:00,69.4,64.4,30.01,SSW,199,0.0,0.0,84,0.00,BKN,,0.00,WeatherDisplay:10.37,2013-08-02 12:47:00,
2013-08-02 08:52:00,70.2,64.8,30.01,SSW,199,1.3,1.3,83,0.00,BKN,,0.00,WeatherDisplay:10.37,2013-08-02 12:52:00,
2013-08-02 08:57:00,70.9,65.1,30.01,South,177,0.0,0.0,82,0.00,BKN,,0.00,WeatherDisplay:10.37,2013-08-02 12:57:00,
2013-08-02 09:02:00,71.8,65.3,30.00,SSE,155,0.0,0.0,80,0.00,BKN,,0.00,WeatherDisplay:10.37,2013-08-02 13:02:00,
2013-08-02 09:07:00,72.3,65.4,30.00,SSE,155,0.0,0.0,79,0.00,BKN,,0.00,WeatherDisplay:10.37,2013-08-02 13:07:00,
2013-08-02 09:12:00,72.9,65.6,30.01,SW,222,1.1,1.1,78,0.00,BKN,,0.00,WeatherDisplay:10.37,2013-08-02 13:12:00,
2013-08-02 09:17:00,73.8,65.7,30.01,SSW,199,1.2,2.3,76,0.00,BKN,,0.00,WeatherDisplay:10.37,2013-08-02 13:17:00,
2013-08-02 09:22:00,74.3,65.9,30.01,South,177,0.8,1.1,75,0.00,BKN,,0.00,WeatherDisplay:10.37,2013-08-02 13:22:00,
2013-08-02 09:27:00,75.0,66.6,30.01,South,177,0.0,0.0,75,0.00,BKN,,0.00,WeatherDisplay:10.37,2013-08-02 13:27:00,
2013-08-02 09:32:00,75.9,66.6,30.01,SSE,155,0.0,0.0,73,0.00,BKN,,0.00,WeatherDisplay:10.37,2013-08-02 13:32:00,
2013-08-02 09:37:00,76.6,66.9,30.01,SSE,155,1.2,2.3,72,0.00,BKN,,0.00,WeatherDisplay:10.37,2013-08-02 13:37:00,
2013-08-02 09:42:00,77.2,67.0,30.01,SE,132,0.0,0.0,71,0.00,BKN,,0.00,WeatherDisplay:10.37,2013-08-02 13:42:00,
2013-08-02 09:47:00,78.4,67.8,30.02,SSE,155,0.0,0.0,70,0.00,BKN,,0.00,WeatherDisplay:10.37,2013-08-02 13:47:00,
2013-08-02 09:52:00,78.6,67.2,30.02,South,177,2.5,2.5,68,0.00,BKN,,0.00,WeatherDisplay:10.37,2013-08-02 13:52:00,
2013-08-02 09:58:00,79.5,67.6,30.02,SSE,155,1.6,1.6,67,0.00,BKN,,0.00,WeatherDisplay:10.37,2013-08-02 13:58:00,
2013-08-02 10:03:00,80.2,67.8,30.02,SSW,199,0.6,1.1,66,0.00,BKN,,0.00,WeatherDisplay:10.37,2013-08-02 14:03:00,
2013-08-02 10:08:00,80.8,67.9,30.02,SSW,199,0.0,0.0,65,0.00,BKN,,0.00,WeatherDisplay:10.37,2013-08-02 14:08:00,
2013-08-02 10:13:00,81.1,67.8,30.02,South,177,0.0,0.7,64,0.00,OVC,,0.00,WeatherDisplay:10.37,2013-08-02 14:13:00,
2013-08-02 10:18:00,82.0,68.2,30.02,WSW,245,3.3,4.6,63,0.00,OVC,,0.00,WeatherDisplay:10.37,2013-08-02 14:18:00,
2013-08-02 10:23:00,82.6,68.7,30.02,SSE,155,2.5,2.5,63,0.00,OVC,,0.00,WeatherDisplay:10.37,2013-08-02 14:23:00,
2013-08-02 10:28:00,83.1,68.7,30.02,South,177,1.3,4.9,62,0.00,OVC,,0.00,WeatherDisplay:10.37,2013-08-02 14:28:00,
2013-08-02 10:33:00,83.5,69.1,30.02,SSW,199,1.5,2.3,62,0.00,OVC,,0.00,WeatherDisplay:10.37,2013-08-02 14:33:00,
2013-08-02 10:38:00,83.8,69.4,30.02,South,177,0.0,0.0,62,0.00,OVC,,0.00,WeatherDisplay:10.37,2013-08-02 14:38:00,
2013-08-02 10:43:00,84.4,68.5,30.02,South,177,2.0,4.0,59,0.00,OVC,,0.00,WeatherDisplay:10.37,2013-08-02 14:43:00,
2013-08-02 10:47:00,84.4,68.5,30.02,WSW,245,1.1,1.6,59,0.00,OVC,,0.00,WeatherDisplay:10.37,2013-08-02 14:47:00,
2013-08-02 10:53:00,84.7,68.8,30.02,SE,132,2.0,2.3,59,0.00,OVC,,0.00,WeatherDisplay:10.37,2013-08-02 14:53:00,
2013-08-02 10:58:00,84.7,68.8,30.02,SE,132,0.0,3.8,59,0.00,OVC,,0.00,WeatherDisplay:10.37,2013-08-02 14:58:00,
2013-08-02 11:03:00,85.3,68.3,30.02,SSW,199,0.4,4.6,57,0.00,OVC,,0.00,WeatherDisplay:10.37,2013-08-02 15:03:00,
2013-08-02 11:08:00,85.6,68.7,30.02,SSE,155,0.9,1.1,57,0.00,OVC,,0.00,WeatherDisplay:10.37,2013-08-02 15:08:00,
2013-08-02 11:13:00,85.5,68.0,30.03,South,177,1.3,1.3,56,0.00,BKN,,0.00,WeatherDisplay:10.37,2013-08-02 15:13:00,
2013-08-02 11:18:00,85.8,68.8,30.02,SE,132,4.6,5.8,57,0.00,BKN,,0.00,WeatherDisplay:10.37,2013-08-02 15:18:00,
2013-08-02 11:22:00,86.2,68.1,30.03,WSW,245,5.8,5.8,55,0.00,BKN,,0.00,WeatherDisplay:10.37,2013-08-02 15:22:00,
2013-08-02 11:28:00,86.4,67.8,30.02,SSE,155,1.3,5.6,54,0.00,BKN,,0.00,WeatherDisplay:10.37,2013-08-02 15:28:00,
2013-08-02 11:33:00,86.7,68.6,30.03,South,177,4.7,4.7,55,0.00,BKN,,0.00,WeatherDisplay:10.37,2013-08-02 15:33:00,
2013-08-02 11:37:00,87.1,68.4,30.03,South,177,5.1,5.1,54,0.00,BKN,,0.00,WeatherDisplay:10.37,2013-08-02 15:37:00,
2013-08-02 11:43:00,87.4,68.8,30.03,SSW,199,2.7,8.0,54,0.00,BKN,,0.00,WeatherDisplay:10.37,2013-08-02 15:43:00,
2013-08-02 11:48:00,87.6,68.4,30.03,West,267,0.4,3.5,53,0.00,BKN,,0.00,WeatherDisplay:10.37,2013-08-02 15:48:00,
2013-08-02 11:52:00,88.3,69.6,30.03,South,177,2.2,9.2,54,0.00,BKN,,0.00,WeatherDisplay:10.37,2013-08-02 15:52:00,
2013-08-02 11:58:00,89.2,69.3,30.04,WSW,245,3.2,4.7,52,0.00,BKN,,0.00,WeatherDisplay:10.37,2013-08-02 15:58:00,
2013-08-02 12:02:00,88.5,68.1,30.04,SSW,199,4.2,6.9,51,0.00,BKN,,0.00,WeatherDisplay:10.37,2013-08-02 16:02:00,
2013-08-02 12:08:00,88.3,68.5,30.04,SSW,199,0.0,0.0,52,0.00,OVC,,0.00,WeatherDisplay:10.37,2013-08-02 16:08:00,
2013-08-02 12:13:00,88.5,68.1,30.04,SE,132,6.7,6.9,51,0.00,OVC,,0.00,WeatherDisplay:10.37,2013-08-02 16:13:00,
2013-08-02 12:18:00,88.9,68.4,30.04,West,267,3.1,4.6,51,0.00,OVC,,0.00,WeatherDisplay:10.37,2013-08-02 16:18:00,
2013-08-02 12:22:00,89.6,69.1,30.04,WSW,245,4.2,4.6,51,0.00,OVC,,0.00,WeatherDisplay:10.37,2013-08-02 16:22:00,
2013-08-02 12:23:00,89.6,69.1,30.04,WSW,245,4.2,4.6,51,0.00,OVC,,0.00,WeatherDisplay:10.37,2013-08-02 16:23:00,
2013-08-02 12:28:00,89.8,68.7,30.03,West,267,2.5,5.8,50,0.00,OVC,,0.00,WeatherDisplay:10.37,2013-08-02 16:28:00,
2013-08-02 12:33:00,89.6,67.3,30.04,WSW,245,2.2,3.1,48,0.00,OVC,,0.00,WeatherDisplay:10.37,2013-08-02 16:33:00,
2013-08-02 12:38:00,88.7,67.1,30.03,SW,222,5.8,5.8,49,0.00,OVC,,0.00,WeatherDisplay:10.37,2013-08-02 16:38:00,
2013-08-02 12:43:00,89.4,68.3,30.03,ESE,109,4.0,4.6,50,0.00,OVC,,0.00,WeatherDisplay:10.37,2013-08-02 16:43:00,
2013-08-02 12:48:00,90.1,68.4,30.04,SW,222,3.1,3.5,49,0.00,OVC,,0.00,WeatherDisplay:10.37,2013-08-02 16:48:00,
2013-08-02 12:53:00,91.0,68.6,30.04,SW,222,0.9,1.1,48,0.00,OVC,,0.00,WeatherDisplay:10.37,2013-08-02 16:53:00,
2013-08-02 12:58:00,91.4,69.0,30.04,SSW,199,1.0,2.3,48,0.00,OVC,,0.00,WeatherDisplay:10.37,2013-08-02 16:58:00,
2013-08-02 13:03:00,91.9,69.4,30.04,South,177,5.4,5.8,48,0.00,OVC,,0.00,WeatherDisplay:10.37,2013-08-02 17:03:00,
2013-08-02 13:08:00,92.5,69.3,30.04,SSE,155,0.0,0.0,47,0.00,OVC,,0.00,WeatherDisplay:10.37,2013-08-02 17:08:00,
2013-08-02 13:13:00,93.4,69.5,30.04,SW,222,6.2,8.1,46,0.00,OVC,,0.00,WeatherDisplay:10.37,2013-08-02 17:13:00,
2013-08-02 13:18:00,93.4,69.5,30.04,South,177,1.3,1.3,46,0.00,OVC,,0.00,WeatherDisplay:10.37,2013-08-02 17:18:00,
2013-08-02 13:23:00,92.8,69.0,30.04,SSW,199,8.5,8.5,46,0.00,OVC,,0.00,WeatherDisplay:10.37,2013-08-02 17:23:00,
2013-08-02 13:28:00,92.3,68.5,30.04,SSE,155,4.2,5.1,46,0.00,OVC,,0.00,WeatherDisplay:10.37,2013-08-02 17:28:00,
2013-08-02 13:33:00,91.2,66.9,30.03,West,267,2.0,3.5,45,0.00,OVC,,0.00,WeatherDisplay:10.37,2013-08-02 17:33:00,
2013-08-02 13:38:00,91.2,68.2,30.03,SW,222,7.4,7.4,47,0.00,OVC,,0.00,WeatherDisplay:10.37,2013-08-02 17:38:00,
2013-08-02 13:43:00,91.6,68.5,30.04,WNW,289,2.6,3.5,47,0.00,OVC,,0.00,WeatherDisplay:10.37,2013-08-02 17:43:00,
2013-08-02 13:48:00,91.9,66.9,30.03,West,267,2.5,2.5,44,0.00,OVC,,0.00,WeatherDisplay:10.37,2013-08-02 17:48:00,
2013-08-02 13:53:00,90.1,65.3,30.03,WNW,289,0.0,1.1,44,0.00,OVC,,0.00,WeatherDisplay:10.37,2013-08-02 17:53:00,
2013-08-02 13:58:00,89.6,66.1,30.03,SW,222,2.3,2.7,46,0.00,OVC,,0.00,WeatherDisplay:10.37,2013-08-02 17:58:00,
2013-08-02 14:03:00,89.8,65.0,30.03,West,267,2.2,3.5,44,0.00,OVC,,0.00,WeatherDisplay:10.37,2013-08-02 18:03:00,
2013-08-02 14:08:00,89.2,64.5,30.03,West,267,3.4,3.5,44,0.00,BKN,,0.00,WeatherDisplay:10.37,2013-08-02 18:08:00,
2013-08-02 14:13:00,89.2,65.1,30.03,SSE,155,6.0,8.1,45,0.00,BKN,,0.00,WeatherDisplay:10.37,2013-08-02 18:13:00,
2013-08-02 14:18:00,89.4,65.9,30.03,West,267,3.8,3.8,46,0.00,BKN,,0.00,WeatherDisplay:10.37,2013-08-02 18:18:00,
2013-08-02 14:23:00,89.8,66.2,30.03,West,267,4.0,4.0,46,0.00,BKN,,0.00,WeatherDisplay:10.37,2013-08-02 18:23:00,
2013-08-02 14:28:00,89.8,65.6,30.03,WSW,245,6.4,8.1,45,0.00,BKN,,0.00,WeatherDisplay:10.37,2013-08-02 18:28:00,
2013-08-02 14:33:00,89.8,66.9,30.03,WSW,245,4.0,4.6,47,0.00,BKN,,0.00,WeatherDisplay:10.37,2013-08-02 18:33:00,
2013-08-02 14:38:00,90.9,66.6,30.03,WSW,245,2.9,3.5,45,0.00,BKN,,0.00,WeatherDisplay:10.37,2013-08-02 18:38:00,
2013-08-02 14:43:00,90.3,65.4,30.03,WSW,245,1.5,3.5,44,0.00,BKN,,0.00,WeatherDisplay:10.37,2013-08-02 18:43:00,
2013-08-02 14:48:00,90.0,65.8,30.03,WSW,245,0.2,2.3,45,0.00,BKN,,0.00,WeatherDisplay:10.37,2013-08-02 18:48:00,
2013-08-02 14:53:00,89.8,65.6,30.03,WSW,245,1.7,4.9,45,0.00,BKN,,0.00,WeatherDisplay:10.37,2013-08-02 18:53:00,
2013-08-02 14:58:00,89.6,66.1,30.03,WSW,245,4.0,4.6,46,0.00,BKN,,0.00,WeatherDisplay:10.37,2013-08-02 18:58:00,
2013-08-02 15:03:00,89.4,66.5,30.03,SW,222,2.2,2.3,47,0.00,BKN,,0.00,WeatherDisplay:10.37,2013-08-02 19:03:00,
2013-08-02 15:08:00,89.4,66.5,30.03,SW,222,1.8,6.9,47,0.00,BKN,,0.00,WeatherDisplay:10.37,2013-08-02 19:08:00,
2013-08-02 15:13:00,90.1,66.6,30.03,West,267,7.0,9.2,46,0.00,BKN,,0.00,WeatherDisplay:10.37,2013-08-02 19:13:00,
2013-08-02 15:18:00,90.7,66.4,30.02,West,267,0.0,0.0,45,0.00,BKN,,0.00,WeatherDisplay:10.37,2013-08-02 19:18:00,
2013-08-02 15:23:00,90.7,65.8,30.03,West,267,2.3,2.3,44,0.00,BKN,,0.00,WeatherDisplay:10.37,2013-08-02 19:23:00,
2013-08-02 15:28:00,89.8,65.0,30.03,West,267,4.1,4.6,44,0.00,BKN,,0.00,WeatherDisplay:10.37,2013-08-02 19:28:00,
2013-08-02 15:33:00,88.9,64.8,30.03,WNW,289,2.2,2.3,45,0.00,BKN,,0.00,WeatherDisplay:10.37,2013-08-02 19:33:00,
2013-08-02 15:38:00,88.2,64.8,30.03,WSW,245,4.3,6.9,46,0.00,BKN,,0.00,WeatherDisplay:10.37,2013-08-02 19:38:00,
2013-08-02 15:43:00,88.3,65.6,30.03,SSW,199,2.6,3.5,47,0.00,BKN,,0.00,WeatherDisplay:10.37,2013-08-02 19:43:00,
2013-08-02 15:48:00,89.2,65.8,30.02,SSW,199,0.0,3.5,46,0.00,BKN,,0.00,WeatherDisplay:10.37,2013-08-02 19:48:00,
2013-08-02 15:53:00,89.8,66.2,30.01,South,177,4.1,4.6,46,0.00,BKN,,0.00,WeatherDisplay:10.37,2013-08-02 19:53:00,
2013-08-02 15:58:00,90.0,66.4,30.01,West,267,4.2,4.6,46,0.00,BKN,,0.00,WeatherDisplay:10.37,2013-08-02 19:58:00,
2013-08-02 16:03:00,89.4,65.3,30.01,WSW,245,0.0,4.6,45,0.00,BKN,,0.00,WeatherDisplay:10.37,2013-08-02 20:03:00,
2013-08-02 16:08:00,87.8,63.8,30.01,WSW,245,2.5,2.5,45,0.00,OVC,,0.00,WeatherDisplay:10.37,2013-08-02 20:08:00,
2013-08-02 16:13:00,87.6,64.9,30.02,West,267,2.2,3.5,47,0.00,OVC,,0.00,WeatherDisplay:10.37,2013-08-02 20:13:00,
2013-08-02 16:18:00,88.0,64.6,30.02,WSW,245,2.5,2.5,46,0.00,OVC,,0.00,WeatherDisplay:10.37,2013-08-02 20:18:00,
2013-08-02 16:23:00,88.0,64.6,30.02,West,267,1.5,2.3,46,0.00,OVC,,0.00,WeatherDisplay:10.37,2013-08-02 20:23:00,
2013-08-02 16:28:00,88.0,64.6,30.01,West,267,4.4,4.6,46,0.00,OVC,,0.00,WeatherDisplay:10.37,2013-08-02 20:28:00,
2013-08-02 16:33:00,88.0,64.0,30.01,WSW,245,3.8,3.8,45,0.00,OVC,,0.00,WeatherDisplay:10.37,2013-08-02 20:33:00,
2013-08-02 16:38:00,88.2,63.5,30.01,West,267,1.0,2.9,44,0.00,OVC,,0.00,WeatherDisplay:10.37,2013-08-02 20:38:00,
2013-08-02 16:43:00,88.0,63.3,30.01,West,267,2.5,2.5,44,0.00,OVC,,0.00,WeatherDisplay:10.37,2013-08-02 20:43:00,
2013-08-02 16:48:00,87.6,63.0,30.00,SSE,155,2.9,3.5,44,0.00,OVC,,0.00,WeatherDisplay:10.37,2013-08-02 20:48:00,
2013-08-02 16:53:00,88.0,64.0,30.00,West,267,4.3,5.4,45,0.00,OVC,,0.00,WeatherDisplay:10.37,2013-08-02 20:53:00,
2013-08-02 16:58:00,88.0,65.2,30.00,West,267,6.3,10.4,47,0.00,OVC,,0.00,WeatherDisplay:10.37,2013-08-02 20:58:00,
2013-08-02 17:03:00,88.3,64.9,30.00,WSW,245,1.1,1.1,46,0.00,OVC,,0.00,WeatherDisplay:10.37,2013-08-02 21:03:00,
2013-08-02 17:08:00,88.5,65.7,30.00,West,267,3.1,3.6,47,0.00,BKN,,0.00,WeatherDisplay:10.37,2013-08-02 21:08:00,
2013-08-02 17:13:00,88.2,65.4,30.01,WSW,245,3.5,3.5,47,0.00,BKN,,0.00,WeatherDisplay:10.37,2013-08-02 21:13:00,
2013-08-02 17:18:00,87.6,64.9,30.00,South,177,1.6,1.6,47,0.00,BKN,,0.00,WeatherDisplay:10.37,2013-08-02 21:18:00,
2013-08-02 17:23:00,88.2,65.4,30.00,SW,222,2.6,2.6,47,0.00,BKN,,0.00,WeatherDisplay:10.37,2013-08-02 21:23:00,
2013-08-02 17:28:00,88.5,65.7,30.00,SW,222,9.5,10.4,47,0.00,BKN,,0.00,WeatherDisplay:10.37,2013-08-02 21:28:00,
2013-08-02 17:33:00,88.9,65.4,30.00,WSW,245,9.2,9.2,46,0.00,BKN,,0.00,WeatherDisplay:10.37,2013-08-02 21:33:00,
2013-08-02 17:38:00,88.3,64.3,30.00,SW,222,1.8,2.5,45,0.00,BKN,,0.00,WeatherDisplay:10.37,2013-08-02 21:38:00,
2013-08-02 17:43:00,88.0,65.2,30.00,West,267,2.3,3.5,47,0.00,BKN,,0.00,WeatherDisplay:10.37,2013-08-02 21:43:00,
2013-08-02 17:48:00,88.2,65.4,30.00,WSW,245,6.3,6.3,47,0.00,BKN,,0.00,WeatherDisplay:10.37,2013-08-02 21:48:00,
2013-08-02 17:53:00,88.2,65.4,29.99,West,267,2.6,3.5,47,0.00,BKN,,0.00,WeatherDisplay:10.37,2013-08-02 21:53:00,
2013-08-02 17:58:00,88.0,65.8,29.99,South,177,3.1,3.5,48,0.00,BKN,,0.00,WeatherDisplay:10.37,2013-08-02 21:58:00,
2013-08-02 18:03:00,87.8,65.1,29.98,South,177,1.3,1.3,47,0.00,BKN,,0.00,WeatherDisplay:10.37,2013-08-02 22:03:00,
2013-08-02 18:08:00,87.6,64.9,29.98,SW,222,4.2,4.7,47,0.00,BKN,,0.00,WeatherDisplay:10.37,2013-08-02 22:08:00,
2013-08-02 18:13:00,87.4,64.7,29.98,West,267,5.6,5.8,47,0.00,BKN,,0.00,WeatherDisplay:10.37,2013-08-02 22:13:00,
2013-08-02 18:18:00,87.4,65.3,29.98,WSW,245,7.6,8.1,48,0.00,BKN,,0.00,WeatherDisplay:10.37,2013-08-02 22:18:00,
2013-08-02 18:23:00,87.1,65.0,29.98,WSW,245,8.6,8.6,48,0.00,BKN,,0.00,WeatherDisplay:10.37,2013-08-02 22:23:00,
2013-08-02 18:28:00,86.9,64.2,29.98,SSW,199,6.3,6.9,47,0.00,BKN,,0.00,WeatherDisplay:10.37,2013-08-02 22:28:00,
2013-08-02 18:33:00,86.7,64.7,29.98,SSW,199,8.0,8.1,48,0.00,BKN,,0.00,WeatherDisplay:10.37,2013-08-02 22:33:00,
2013-08-02 18:38:00,86.5,64.5,29.98,West,267,3.8,6.0,48,0.00,BKN,,0.00,WeatherDisplay:10.37,2013-08-02 22:38:00,
2013-08-02 18:43:00,86.4,64.4,29.98,SW,222,3.6,3.6,48,0.00,BKN,,0.00,WeatherDisplay:10.37,2013-08-02 22:43:00,
2013-08-02 18:48:00,86.2,64.8,29.98,SSE,155,7.8,8.1,49,0.00,BKN,,0.00,WeatherDisplay:10.37,2013-08-02 22:48:00,
2013-08-02 18:53:00,85.6,64.3,29.98,SW,222,2.2,3.4,49,0.00,BKN,,0.00,WeatherDisplay:10.37,2013-08-02 22:53:00,
2013-08-02 18:58:00,85.5,64.7,29.98,South,177,1.3,4.6,50,0.00,BKN,,0.00,WeatherDisplay:10.37,2013-08-02 22:58:00,
2013-08-02 19:03:00,85.1,64.4,29.98,SW,222,5.1,5.1,50,0.00,BKN,,0.00,WeatherDisplay:10.37,2013-08-02 23:03:00,
2013-08-02 19:08:00,84.4,64.3,29.98,South,177,2.0,2.3,51,0.00,BKN,,0.00,WeatherDisplay:10.37,2013-08-02 23:08:00,
2013-08-02 19:13:00,84.0,64.5,29.98,WSW,245,0.0,0.0,52,0.00,BKN,,0.00,WeatherDisplay:10.37,2013-08-02 23:13:00,
2013-08-02 19:18:00,83.8,64.3,29.98,SSE,155,0.1,2.3,52,0.00,BKN,,0.00,WeatherDisplay:10.37,2013-08-02 23:18:00,
2013-08-02 19:23:00,83.8,64.9,29.97,South,177,1.1,1.1,53,0.00,BKN,,0.00,WeatherDisplay:10.37,2013-08-02 23:23:00,
2013-08-02 19:28:00,83.7,64.7,29.97,West,267,0.0,0.0,53,0.00,BKN,,0.00,WeatherDisplay:10.37,2013-08-02 23:28:00,
2013-08-02 19:33:00,83.1,64.2,29.97,South,177,1.8,2.3,53,0.00,BKN,,0.00,WeatherDisplay:10.37,2013-08-02 23:33:00,
2013-08-02 19:38:00,82.2,63.9,29.97,WSW,245,0.0,0.0,54,0.00,BKN,,0.00,WeatherDisplay:10.37,2013-08-02 23:38:00,
2013-08-02 19:43:00,81.7,63.4,29.97,SSE,155,0.0,0.0,54,0.00,BKN,,0.00,WeatherDisplay:10.37,2013-08-02 23:43:00,
2013-08-02 19:48:00,81.1,64.0,29.97,SSE,155,0.0,0.0,56,0.00,BKN,,0.00,WeatherDisplay:10.37,2013-08-02 23:48:00,
2013-08-02 19:53:00,80.4,63.3,29.98,WSW,245,0.0,0.0,56,0.00,BKN,,0.00,WeatherDisplay:10.37,2013-08-02 23:53:00,
2013-08-02 19:58:00,79.9,63.8,29.98,WSW,245,0.0,0.0,58,0.00,BKN,,0.00,WeatherDisplay:10.37,2013-08-02 23:58:00,
2013-08-02 20:03:00,79.5,63.4,29.98,WSW,245,1.3,1.6,58,0.00,BKN,,0.00,WeatherDisplay:10.37,2013-08-03 00:03:00,
2013-08-02 20:08:00,79.2,63.1,29.98,WSW,245,0.0,0.0,58,0.00,BKN,,0.00,WeatherDisplay:10.37,2013-08-03 00:08:00,
2013-08-02 20:13:00,78.6,63.1,29.98,WSW,245,0.9,1.1,59,0.00,BKN,,0.00,WeatherDisplay:10.37,2013-08-03 00:13:00,
2013-08-02 20:18:00,78.4,63.4,29.98,WSW,245,0.0,0.0,60,0.00,BKN,,0.00,WeatherDisplay:10.37,2013-08-03 00:18:00,
2013-08-02 20:23:00,77.9,63.4,29.98,WSW,245,0.0,0.0,61,0.00,BKN,,0.00,WeatherDisplay:10.37,2013-08-03 00:23:00,
2013-08-02 20:28:00,77.5,63.0,29.98,SW,222,0.0,0.0,61,0.00,BKN,,0.00,WeatherDisplay:10.37,2013-08-03 00:28:00,
2013-08-02 20:33:00,76.8,62.8,29.98,WNW,289,0.0,0.0,62,0.00,BKN,,0.00,WeatherDisplay:10.37,2013-08-03 00:33:00,
2013-08-02 20:38:00,76.5,62.5,29.98,West,267,0.0,0.0,62,0.00,BKN,,0.00,WeatherDisplay:10.37,2013-08-03 00:38:00,
2013-08-02 20:43:00,76.1,62.1,29.98,West,267,0.0,0.0,62,0.00,BKN,,0.00,WeatherDisplay:10.37,2013-08-03 00:43:00,
2013-08-02 20:48:00,75.7,62.2,29.98,West,267,0.0,0.0,63,0.00,BKN,,0.00,WeatherDisplay:10.37,2013-08-03 00:48:00,
2013-08-02 20:53:00,75.6,62.5,29.99,West,267,0.0,0.0,64,0.00,BKN,,0.00,WeatherDisplay:10.37,2013-08-03 00:53:00,
2013-08-02 20:58:00,75.4,62.4,29.98,West,267,0.0,0.0,64,0.00,BKN,,0.00,WeatherDisplay:10.37,2013-08-03 00:58:00,
2013-08-02 21:03:00,75.0,62.5,29.99,West,267,0.0,0.0,65,0.00,BKN,,0.00,WeatherDisplay:10.37,2013-08-03 01:03:00,
2013-08-02 21:08:00,74.8,62.3,29.98,SW,222,0.0,0.0,65,0.00,BKN,,0.00,WeatherDisplay:10.37,2013-08-03 01:08:00,
2013-08-02 21:13:00,74.8,62.7,29.98,SW,222,0.0,0.0,66,0.00,BKN,,0.00,WeatherDisplay:10.37,2013-08-03 01:13:00,
2013-08-02 21:18:00,74.5,62.4,29.98,South,177,0.0,0.0,66,0.00,BKN,,0.00,WeatherDisplay:10.37,2013-08-03 01:18:00,
2013-08-02 21:23:00,74.5,62.8,29.98,South,177,0.0,0.0,67,0.00,BKN,,0.00,WeatherDisplay:10.37,2013-08-03 01:23:00,
2013-08-02 21:28:00,74.1,62.5,29.98,SW,222,0.0,0.0,67,0.00,BKN,,0.00,WeatherDisplay:10.37,2013-08-03 01:28:00,
2013-08-02 21:33:00,74.1,62.5,29.99,South,177,0.0,0.0,67,0.00,BKN,,0.00,WeatherDisplay:10.37,2013-08-03 01:33:00,
2013-08-02 21:38:00,73.9,62.3,29.99,South,177,0.0,0.0,67,0.00,BKN,,0.00,WeatherDisplay:10.37,2013-08-03 01:38:00,
2013-08-02 21:43:00,73.9,61.9,29.99,South,177,0.0,0.0,66,0.00,BKN,,0.00,WeatherDisplay:10.37,2013-08-03 01:43:00,
2013-08-02 21:49:00,73.8,62.1,29.99,SW,222,0.0,0.0,67,0.00,BKN,,0.00,WeatherDisplay:10.37,2013-08-03 01:49:00,
2013-08-02 21:54:00,73.6,62.4,29.99,SSW,199,0.0,0.0,68,0.00,BKN,,0.00,WeatherDisplay:10.37,2013-08-03 01:54:00,
2013-08-02 21:59:00,73.6,62.8,30.00,SSW,199,0.0,0.0,69,0.00,BKN,,0.00,WeatherDisplay:10.37,2013-08-03 01:59:00,
2013-08-02 22:04:00,73.2,62.4,29.99,WSW,245,0.0,0.0,69,0.00,BKN,,0.00,WeatherDisplay:10.37,2013-08-03 02:04:00,
2013-08-02 22:09:00,73.2,62.4,30.00,SW,222,0.0,0.0,69,0.00,OVC,,0.00,WeatherDisplay:10.37,2013-08-03 02:09:00,
2013-08-02 22:14:00,73.2,62.8,30.00,SW,222,0.0,0.0,70,0.00,OVC,,0.00,WeatherDisplay:10.37,2013-08-03 02:14:00,
2013-08-02 22:19:00,73.2,62.4,30.00,SW,222,0.0,0.0,69,0.00,OVC,,0.00,WeatherDisplay:10.37,2013-08-03 02:19:00,
2013-08-02 22:24:00,73.0,62.3,30.00,SW,222,0.0,0.0,69,0.00,OVC,,0.00,WeatherDisplay:10.37,2013-08-03 02:24:00,
2013-08-02 22:29:00,73.0,62.3,30.01,SW,222,0.0,0.0,69,0.00,OVC,,0.00,WeatherDisplay:10.37,2013-08-03 02:29:00,
2013-08-02 22:34:00,73.0,62.7,30.01,WSW,245,0.0,0.0,70,0.00,OVC,,0.00,WeatherDisplay:10.37,2013-08-03 02:34:00,
2013-08-02 22:39:00,73.0,62.3,30.01,SW,222,0.0,0.0,69,0.00,OVC,,0.00,WeatherDisplay:10.37,2013-08-03 02:39:00,
2013-08-02 22:44:00,72.7,61.9,30.00,SW,222,0.0,0.0,69,0.00,OVC,,0.00,WeatherDisplay:10.37,2013-08-03 02:44:00,
2013-08-02 22:49:00,72.7,62.3,30.00,South,177,0.4,1.3,70,0.00,OVC,,0.00,WeatherDisplay:10.37,2013-08-03 02:49:00,
2013-08-02 22:54:00,72.5,62.2,30.00,SSW,199,0.0,0.0,70,0.00,OVC,,0.00,WeatherDisplay:10.37,2013-08-03 02:54:00,
2013-08-02 22:59:00,72.3,62.4,30.00,South,177,0.0,0.0,71,0.00,OVC,,0.00,WeatherDisplay:10.37,2013-08-03 02:59:00,
2013-08-02 23:04:00,72.3,62.4,29.99,South,177,0.0,0.0,71,0.00,OVC,,0.00,WeatherDisplay:10.37,2013-08-03 03:04:00,
2013-08-02 23:09:00,72.3,62.4,30.00,SSE,155,0.0,0.0,71,0.00,OVC,,0.00,WeatherDisplay:10.37,2013-08-03 03:09:00,
2013-08-02 23:14:00,72.1,62.2,29.99,SSE,155,0.0,0.0,71,0.00,OVC,,0.00,WeatherDisplay:10.37,2013-08-03 03:14:00,
2013-08-02 23:19:00,72.1,62.2,30.00,SSE,155,0.0,0.0,71,0.00,OVC,,0.00,WeatherDisplay:10.37,2013-08-03 03:19:00,
2013-08-02 23:24:00,72.0,62.0,30.00,South,177,0.0,0.0,71,0.00,OVC,,0.00,WeatherDisplay:10.37,2013-08-03 03:24:00,
2013-08-02 23:29:00,72.0,62.0,29.99,SSW,199,0.0,0.0,71,0.00,OVC,,0.00,WeatherDisplay:10.37,2013-08-03 03:29:00,
2013-08-02 23:34:00,72.0,62.4,29.99,SSW,199,0.0,0.0,72,0.00,OVC,,0.00,WeatherDisplay:10.37,2013-08-03 03:34:00,
2013-08-02 23:39:00,71.8,61.9,30.00,SSW,199,0.0,0.0,71,0.00,OVC,,0.00,WeatherDisplay:10.37,2013-08-03 03:39:00,
2013-08-02 23:44:00,71.8,61.5,29.99,South,177,0.0,0.0,70,0.00,OVC,,0.00,WeatherDisplay:10.37,2013-08-03 03:44:00,
2013-08-02 23:49:00,71.8,61.9,29.99,WSW,245,0.0,0.0,71,0.00,OVC,,0.00,WeatherDisplay:10.37,2013-08-03 03:49:00,
2013-08-02 23:54:00,71.8,61.9,29.99,SSW,199,0.0,0.0,71,0.00,OVC,,0.00,WeatherDisplay:10.37,2013-08-03 03:54:00,
2013-08-02 23:59:00,71.4,61.5,29.99,SSW,199,0.0,0.0,71,0.00,OVC,,0.00,WeatherDisplay:10.37,2013-08-03 03:59:00,